Location: Unspecified
(0.0000°N, 0.0000°E)
Time: 11:03:20
(UTC+00:00)

Vanguard 3 - Pass Details

Date: 21 November 2019
Orbit: 508 x 3263 km, 33.3° (Epoch: 14 December)

Event Time Altitude Azimuth Distance (km) Brightness Sun altitude
Rises 09:37:24 0° 235° (SW) 4,664 10.9 52.8°
Reaches altitude 10° 09:39:57 10° 235° (SW) 3,972 10.7 53.3°
Maximum altitude 09:51:28 88° 323° (NW) 2,464 10.6 55.7°
Drops below altitude 10° 10:10:25 10° 53° (NE) 6,122 11.8 59.3°
Sets 10:15:27 0° 53° (NE) 7,220 12.1 60.2°
